Voltar ao catálogo

STARLINK-35896

AtivoComunicaçõesVLEO
NORAD 66824·PAYLOAD·🇺🇸 United States

Lançado Dec 2, 2025 de Vandenberg Space Force Base

Loading…

Próximas Passagens (próximas 24 horas)

TLE

AtualizadoSource: CelesTrak SupGP

Época: Sep 15, 2026, 04:01 UTC

1 66824C 25280D   26258.16784722 -.00052074  00000+0 -43631-2 0  2589
2 66824  70.0010 216.8034 0003372 269.3949 164.3738 14.98364393    10

Acompanhe STARLINK-35896 em tempo real com AllMySat

Download on the App Store